iso_date,epoch_date,Year,Hour,Min,DOY,POS_DOY,Lat,Lon,BP,Ts,Ta,has_bp,has_ts,has_ta,BuoyID,Buoy_Type,Buoy_Owner,Logistics,Hemisphere
2020-03-22T10:39:04Z,1584873544,2020,10,39,82.4438,79.6,85.9122,19.0012,978.4,9.1,-999.0,yes,yes,no,300234010084660,unknown,unknown,unknown,North
2020-03-22T10:59:57Z,1584874797,2020,11,0,82.4583,79.615,85.9122,19.0012,983.1,-6.9,-999.0,yes,yes,no,300234010084660,unknown,unknown,unknown,North
2020-03-22T12:00:00Z,1584878400,2020,12,0,82.5,82.5,86.0568,21.5602,983.1,-13.2,-999.0,yes,yes,no,300234010084660,unknown,unknown,unknown,North
2020-03-22T13:00:02Z,1584882003,2020,13,0,82.5417,82.5,86.0568,21.5602,986.9,-16.3,-999.0,yes,yes,no,300234010084660,unknown,unknown,unknown,North
2020-03-22T13:59:57Z,1584885597,2020,14,0,82.5833,82.5,86.0568,21.5602,987.8,-18.1,-999.0,yes,yes,no,300234010084660,unknown,unknown,unknown,North
2020-03-22T15:00:00Z,1584889200,2020,15,0,82.625,82.625,86.0574,21.5918,987.5,-19.0,-999.0,yes,yes,no,300234010084660,unknown,unknown,unknown,North
2020-03-22T16:00:02Z,1584892803,2020,16,0,82.6667,82.625,86.0574,21.5918,987.2,-19.5,-999.0,yes,yes,no,300234010084660,unknown,unknown,unknown,North
2020-03-22T16:59:57Z,1584896397,2020,17,0,82.7083,82.625,86.0574,21.5918,986.3,-20.1,-999.0,yes,yes,no,300234010084660,unknown,unknown,unknown,North
2020-03-22T18:00:00Z,1584900000,2020,18,0,82.75,82.75,86.057,21.613,986.5,-21.0,-999.0,yes,yes,no,300234010084660,unknown,unknown,unknown,North
2020-03-22T19:00:02Z,1584903603,2020,19,0,82.7917,82.75,86.057,21.613,986.2,-21.7,-999.0,yes,yes,no,300234010084660,unknown,unknown,unknown,North
2020-03-22T19:59:57Z,1584907197,2020,20,0,82.8333,82.75,86.057,21.613,986.1,-22.2,-999.0,yes,yes,no,300234010084660,unknown,unknown,unknown,North
2020-03-22T21:00:00Z,1584910800,2020,21,0,82.875,82.875,86.056,21.617,986.1,-22.6,-999.0,yes,yes,no,300234010084660,unknown,unknown,unknown,North
2020-03-22T22:00:02Z,1584914403,2020,22,0,82.9167,82.875,86.056,21.617,986.2,-23.1,-999.0,yes,yes,no,300234010084660,unknown,unknown,unknown,North
2020-03-22T22:59:57Z,1584917997,2020,23,0,82.9583,82.875,86.056,21.617,986.2,-23.6,-999.0,yes,yes,no,300234010084660,unknown,unknown,unknown,North
2020-03-23T00:00:00Z,1584921600,2020,0,0,83.0,83.0,86.0542,21.6036,986.4,-24.0,-999.0,yes,yes,no,300234010084660,unknown,unknown,unknown,North
2020-03-23T01:00:02Z,1584925203,2020,1,0,83.0417,83.0,86.0542,21.6036,986.1,-24.4,-999.0,yes,yes,no,300234010084660,unknown,unknown,unknown,North
2020-03-23T01:59:57Z,1584928797,2020,2,0,83.0833,83.0,86.0542,21.6036,986.5,-24.7,-999.0,yes,yes,no,300234010084660,unknown,unknown,unknown,North
2020-03-23T03:00:00Z,1584932400,2020,3,0,83.125,83.125,86.0526,21.5846,986.9,-24.9,-999.0,yes,yes,no,300234010084660,unknown,unknown,unknown,North
2020-03-23T04:00:02Z,1584936003,2020,4,0,83.1667,83.125,86.0526,21.5846,987.0,-24.9,-999.0,yes,yes,no,300234010084660,unknown,unknown,unknown,North
2020-03-23T04:59:57Z,1584939597,2020,5,0,83.2083,83.125,86.0526,21.5846,987.8,-24.9,-999.0,yes,yes,no,300234010084660,unknown,unknown,unknown,North
2020-03-23T06:00:00Z,1584943200,2020,6,0,83.25,83.25,86.0508,21.553,988.2,-24.6,-999.0,yes,yes,no,300234010084660,unknown,unknown,unknown,North
2020-03-23T07:00:02Z,1584946803,2020,7,0,83.2917,83.25,86.0508,21.553,988.3,-24.2,-999.0,yes,yes,no,300234010084660,unknown,unknown,unknown,North
2020-03-23T07:59:57Z,1584950397,2020,8,0,83.3333,83.25,86.0508,21.553,988.5,-23.6,-999.0,yes,yes,no,300234010084660,unknown,unknown,unknown,North
2020-03-23T09:00:00Z,1584954000,2020,9,0,83.375,83.375,86.048,21.5138,989.0,-23.0,-999.0,yes,yes,no,300234010084660,unknown,unknown,unknown,North
2020-03-23T10:00:02Z,1584957603,2020,10,0,83.4167,83.375,86.048,21.5138,989.6,-22.3,-999.0,yes,yes,no,300234010084660,unknown,unknown,unknown,North
2020-03-23T10:59:57Z,1584961197,2020,11,0,83.4583,83.375,86.048,21.5138,989.5,-21.7,-999.0,yes,yes,no,300234010084660,unknown,unknown,unknown,North
2020-03-23T12:00:00Z,1584964800,2020,12,0,83.5,83.5,86.0456,21.4918,989.5,-21.3,-999.0,yes,yes,no,300234010084660,unknown,unknown,unknown,North
2020-03-23T13:00:02Z,1584968403,2020,13,0,83.5417,83.5,86.0456,21.4918,990.2,-21.0,-999.0,yes,yes,no,300234010084660,unknown,unknown,unknown,North
2020-03-23T13:59:57Z,1584971997,2020,14,0,83.5833,83.5,86.0456,21.4918,990.1,-20.8,-999.0,yes,yes,no,300234010084660,unknown,unknown,unknown,North
2020-03-23T15:00:00Z,1584975600,2020,15,0,83.625,83.625,86.0438,21.4796,990.7,-20.8,-999.0,yes,yes,no,300234010084660,unknown,unknown,unknown,North
2020-03-23T16:00:02Z,1584979203,2020,16,0,83.6667,83.625,86.0438,21.4796,990.8,-21.0,-999.0,yes,yes,no,300234010084660,unknown,unknown,unknown,North
2020-03-23T16:59:57Z,1584982797,2020,17,0,83.7083,83.625,86.0438,21.4796,991.0,-21.3,-999.0,yes,yes,no,300234010084660,unknown,unknown,unknown,North
2020-03-23T18:00:00Z,1584986400,2020,18,0,83.75,83.75,86.0414,21.459,991.3,-21.8,-999.0,yes,yes,no,300234010084660,unknown,unknown,unknown,North
2020-03-23T19:00:02Z,1584990003,2020,19,0,83.7917,83.75,86.0414,21.459,991.8,-22.6,-999.0,yes,yes,no,300234010084660,unknown,unknown,unknown,North
2020-03-23T19:59:57Z,1584993597,2020,20,0,83.8333,83.75,86.0414,21.459,992.1,-23.2,-999.0,yes,yes,no,300234010084660,unknown,unknown,unknown,North
2020-03-23T21:00:00Z,1584997200,2020,21,0,83.875,83.875,86.038,21.4218,992.5,-23.8,-999.0,yes,yes,no,300234010084660,unknown,unknown,unknown,North
2020-03-23T22:00:02Z,1585000803,2020,22,0,83.9167,83.875,86.038,21.4218,993.0,-24.4,-999.0,yes,yes,no,300234010084660,unknown,unknown,unknown,North
2020-03-23T22:59:57Z,1585004397,2020,23,0,83.9583,83.875,86.038,21.4218,993.7,-24.7,-999.0,yes,yes,no,300234010084660,unknown,unknown,unknown,North
2020-03-24T00:00:00Z,1585008000,2020,0,0,84.0,84.0,86.0352,21.3806,993.5,-25.0,-999.0,yes,yes,no,300234010084660,unknown,unknown,unknown,North
2020-03-24T01:00:02Z,1585011603,2020,1,0,84.0417,84.0,86.0352,21.3806,994.2,-25.3,-999.0,yes,yes,no,300234010084660,unknown,unknown,unknown,North
2020-03-24T01:59:57Z,1585015197,2020,2,0,84.0833,84.0,86.0352,21.3806,994.4,-25.4,-999.0,yes,yes,no,300234010084660,unknown,unknown,unknown,North
2020-03-24T03:00:00Z,1585018800,2020,3,0,84.125,84.125,86.0328,21.353,994.5,-25.6,-999.0,yes,yes,no,300234010084660,unknown,unknown,unknown,North
2020-03-24T04:00:02Z,1585022403,2020,4,0,84.1667,84.125,86.0328,21.353,995.2,-25.6,-999.0,yes,yes,no,300234010084660,unknown,unknown,unknown,North
2020-03-24T04:59:57Z,1585025997,2020,5,0,84.2083,84.125,86.0328,21.353,995.2,-25.3,-999.0,yes,yes,no,300234010084660,unknown,unknown,unknown,North
2020-03-24T06:00:00Z,1585029600,2020,6,0,84.25,84.25,86.0304,21.3214,995.5,-25.0,-999.0,yes,yes,no,300234010084660,unknown,unknown,unknown,North
2020-03-24T07:00:02Z,1585033203,2020,7,0,84.2917,84.25,86.0304,21.3214,995.1,-24.6,-999.0,yes,yes,no,300234010084660,unknown,unknown,unknown,North
2020-03-24T07:59:57Z,1585036797,2020,8,0,84.3333,84.25,86.0304,21.3214,995.0,-24.2,-999.0,yes,yes,no,300234010084660,unknown,unknown,unknown,North
2020-03-24T09:00:00Z,1585040400,2020,9,0,84.375,84.375,86.0278,21.2614,994.9,-23.9,-999.0,yes,yes,no,300234010084660,unknown,unknown,unknown,North
2020-03-24T10:00:02Z,1585044003,2020,10,0,84.4167,84.375,86.0278,21.2614,995.1,-23.8,-999.0,yes,yes,no,300234010084660,unknown,unknown,unknown,North
2020-03-24T10:59:57Z,1585047597,2020,11,0,84.4583,84.375,86.0278,21.2614,994.8,-23.7,-999.0,yes,yes,no,300234010084660,unknown,unknown,unknown,North
2020-03-24T12:00:00Z,1585051200,2020,12,0,84.5,84.5,86.024,21.169,994.7,-23.9,-999.0,yes,yes,no,300234010084660,unknown,unknown,unknown,North
2020-03-24T13:00:02Z,1585054803,2020,13,0,84.5417,84.5,86.024,21.169,995.0,-24.2,-999.0,yes,yes,no,300234010084660,unknown,unknown,unknown,North
2020-03-24T13:59:57Z,1585058397,2020,14,0,84.5833,84.5,86.024,21.169,994.4,-24.5,-999.0,yes,yes,no,300234010084660,unknown,unknown,unknown,North
2020-03-24T15:00:00Z,1585062000,2020,15,0,84.625,84.625,86.0194,21.0394,994.8,-24.8,-999.0,yes,yes,no,300234010084660,unknown,unknown,unknown,North
2020-03-24T16:00:02Z,1585065603,2020,16,0,84.6667,84.625,86.0194,21.0394,994.3,-25.0,-999.0,yes,yes,no,300234010084660,unknown,unknown,unknown,North
2020-03-24T16:59:57Z,1585069197,2020,17,0,84.7083,84.625,86.0194,21.0394,994.1,-25.0,-999.0,yes,yes,no,300234010084660,unknown,unknown,unknown,North
2020-03-24T18:00:00Z,1585072800,2020,18,0,84.75,84.75,86.0128,20.8966,993.8,-25.1,-999.0,yes,yes,no,300234010084660,unknown,unknown,unknown,North
2020-03-24T19:00:02Z,1585076403,2020,19,0,84.7917,84.75,86.0128,20.8966,993.6,-24.9,-999.0,yes,yes,no,300234010084660,unknown,unknown,unknown,North
2020-03-24T19:59:57Z,1585079997,2020,20,0,84.8333,84.75,86.0128,20.8966,993.5,-24.7,-999.0,yes,yes,no,300234010084660,unknown,unknown,unknown,North
2020-03-24T21:00:00Z,1585083600,2020,21,0,84.875,84.875,86.0048,20.7068,992.8,-24.4,-999.0,yes,yes,no,300234010084660,unknown,unknown,unknown,North
2020-03-24T22:00:02Z,1585087203,2020,22,0,84.9167,84.875,86.0048,20.7068,992.9,-24.2,-999.0,yes,yes,no,300234010084660,unknown,unknown,unknown,North
2020-03-24T22:59:57Z,1585090797,2020,23,0,84.9583,84.875,86.0048,20.7068,992.5,-24.0,-999.0,yes,yes,no,300234010084660,unknown,unknown,unknown,North
2020-03-25T00:00:00Z,1585094400,2020,0,0,85.0,85.0,85.9932,20.4796,992.1,-23.5,-999.0,yes,yes,no,300234010084660,unknown,unknown,unknown,North
2020-03-25T01:00:02Z,1585098003,2020,1,0,85.0417,85.0,85.9932,20.4796,991.8,-23.0,-999.0,yes,yes,no,300234010084660,unknown,unknown,unknown,North
2020-03-25T01:59:57Z,1585101597,2020,2,0,85.0833,85.0,85.9932,20.4796,991.2,-22.6,-999.0,yes,yes,no,300234010084660,unknown,unknown,unknown,North
2020-03-25T03:00:00Z,1585105200,2020,3,0,85.125,85.125,85.9808,20.2308,990.9,-22.1,-999.0,yes,yes,no,300234010084660,unknown,unknown,unknown,North
2020-03-25T04:00:02Z,1585108803,2020,4,0,85.1667,85.125,85.9808,20.2308,990.5,-21.5,-999.0,yes,yes,no,300234010084660,unknown,unknown,unknown,North
2020-03-25T04:59:57Z,1585112397,2020,5,0,85.2083,85.125,85.9808,20.2308,990.0,-21.0,-999.0,yes,yes,no,300234010084660,unknown,unknown,unknown,North
2020-03-25T06:00:00Z,1585116000,2020,6,0,85.25,85.25,85.9684,19.9596,989.8,-20.5,-999.0,yes,yes,no,300234010084660,unknown,unknown,unknown,North
2020-03-25T07:00:02Z,1585119603,2020,7,0,85.2917,85.25,85.9684,19.9596,989.8,-20.1,-999.0,yes,yes,no,300234010084660,unknown,unknown,unknown,North
2020-03-25T07:59:57Z,1585123197,2020,8,0,85.3333,85.25,85.9684,19.9596,989.1,-19.7,-999.0,yes,yes,no,300234010084660,unknown,unknown,unknown,North
2020-03-25T09:00:00Z,1585126800,2020,9,0,85.375,85.375,85.9554,19.6778,989.2,-19.4,-999.0,yes,yes,no,300234010084660,unknown,unknown,unknown,North
2020-03-25T10:00:02Z,1585130403,2020,10,0,85.4167,85.375,85.9554,19.6778,989.3,-19.2,-999.0,yes,yes,no,300234010084660,unknown,unknown,unknown,North
2020-03-25T10:59:57Z,1585133997,2020,11,0,85.4583,85.375,85.9554,19.6778,989.4,-19.2,-999.0,yes,yes,no,300234010084660,unknown,unknown,unknown,North
2020-03-25T12:00:00Z,1585137600,2020,12,0,85.5,85.5,85.9432,19.3992,989.6,-19.2,-999.0,yes,yes,no,300234010084660,unknown,unknown,unknown,North
2020-03-25T13:00:02Z,1585141203,2020,13,0,85.5417,85.5,85.9432,19.3992,989.5,-19.2,-999.0,yes,yes,no,300234010084660,unknown,unknown,unknown,North
2020-03-25T13:59:57Z,1585144797,2020,14,0,85.5833,85.5,85.9432,19.3992,989.5,-19.3,-999.0,yes,yes,no,300234010084660,unknown,unknown,unknown,North
2020-03-25T15:00:00Z,1585148400,2020,15,0,85.625,85.625,85.9308,19.1688,989.4,-19.3,-999.0,yes,yes,no,300234010084660,unknown,unknown,unknown,North
2020-03-25T16:00:02Z,1585152003,2020,16,0,85.6667,85.625,85.9308,19.1688,989.7,-19.5,-999.0,yes,yes,no,300234010084660,unknown,unknown,unknown,North
2020-03-25T16:59:57Z,1585155597,2020,17,0,85.7083,85.625,85.9308,19.1688,989.7,-19.5,-999.0,yes,yes,no,300234010084660,unknown,unknown,unknown,North
2020-03-25T18:00:00Z,1585159200,2020,18,0,85.75,85.75,85.9176,18.9864,989.4,-19.6,-999.0,yes,yes,no,300234010084660,unknown,unknown,unknown,North
2020-03-25T19:00:02Z,1585162803,2020,19,0,85.7917,85.75,85.9176,18.9864,989.4,-19.7,-999.0,yes,yes,no,300234010084660,unknown,unknown,unknown,North
2020-03-25T19:59:57Z,1585166397,2020,20,0,85.8333,85.75,85.9176,18.9864,989.3,-19.8,-999.0,yes,yes,no,300234010084660,unknown,unknown,unknown,North
2020-03-25T21:00:00Z,1585170000,2020,21,0,85.875,85.875,85.9044,18.824,989.0,-19.9,-999.0,yes,yes,no,300234010084660,unknown,unknown,unknown,North
2020-03-25T22:00:02Z,1585173603,2020,22,0,85.9167,85.875,85.9044,18.824,989.3,-20.1,-999.0,yes,yes,no,300234010084660,unknown,unknown,unknown,North
2020-03-25T22:59:57Z,1585177197,2020,23,0,85.9583,85.875,85.9044,18.824,989.3,-20.3,-999.0,yes,yes,no,300234010084660,unknown,unknown,unknown,North
2020-03-26T00:00:00Z,1585180800,2020,0,0,86.0,86.0,85.8908,18.6914,989.3,-20.5,-999.0,yes,yes,no,300234010084660,unknown,unknown,unknown,North
2020-03-26T01:00:02Z,1585184403,2020,1,0,86.0417,86.0,85.8908,18.6914,989.3,-20.6,-999.0,yes,yes,no,300234010084660,unknown,unknown,unknown,North
2020-03-26T01:59:57Z,1585187997,2020,2,0,86.0833,86.0,85.8908,18.6914,989.1,-20.7,-999.0,yes,yes,no,300234010084660,unknown,unknown,unknown,North
2020-03-26T03:00:00Z,1585191600,2020,3,0,86.125,86.125,85.8766,18.5964,989.2,-20.9,-999.0,yes,yes,no,300234010084660,unknown,unknown,unknown,North
2020-03-26T04:00:02Z,1585195203,2020,4,0,86.1667,86.125,85.8766,18.5964,989.3,-21.0,-999.0,yes,yes,no,300234010084660,unknown,unknown,unknown,North
2020-03-26T04:59:57Z,1585198797,2020,5,0,86.2083,86.125,85.8766,18.5964,989.3,-21.1,-999.0,yes,yes,no,300234010084660,unknown,unknown,unknown,North
2020-03-26T06:00:00Z,1585202400,2020,6,0,86.25,86.25,85.862,18.525,988.9,-21.0,-999.0,yes,yes,no,300234010084660,unknown,unknown,unknown,North
2020-03-26T07:00:02Z,1585206003,2020,7,0,86.2917,86.25,85.862,18.525,989.2,-21.1,-999.0,yes,yes,no,300234010084660,unknown,unknown,unknown,North
2020-03-26T07:59:57Z,1585209597,2020,8,0,86.3333,86.25,85.862,18.525,989.4,-21.0,-999.0,yes,yes,no,300234010084660,unknown,unknown,unknown,North
2020-03-26T09:00:00Z,1585213200,2020,9,0,86.375,86.375,85.8458,18.4606,989.2,-20.8,-999.0,yes,yes,no,300234010084660,unknown,unknown,unknown,North
2020-03-26T10:00:02Z,1585216803,2020,10,0,86.4167,86.375,85.8458,18.4606,989.4,-20.6,-999.0,yes,yes,no,300234010084660,unknown,unknown,unknown,North
2020-03-26T10:59:57Z,1585220397,2020,11,0,86.4583,86.375,85.8458,18.4606,989.6,-20.6,-999.0,yes,yes,no,300234010084660,unknown,unknown,unknown,North
2020-03-26T12:00:00Z,1585224000,2020,12,0,86.5,86.5,85.829,18.4142,989.6,-20.5,-999.0,yes,yes,no,300234010084660,unknown,unknown,unknown,North
2020-03-26T13:00:02Z,1585227603,2020,13,0,86.5417,86.5,85.829,18.4142,990.0,-20.5,-999.0,yes,yes,no,300234010084660,unknown,unknown,unknown,North
2020-03-26T13:59:57Z,1585231197,2020,14,0,86.5833,86.5,85.829,18.4142,989.8,-20.4,-999.0,yes,yes,no,300234010084660,unknown,unknown,unknown,North
2020-03-26T15:00:00Z,1585234800,2020,15,0,86.625,86.625,85.812,18.398,990.4,-20.3,-999.0,yes,yes,no,300234010084660,unknown,unknown,unknown,North
2020-03-26T16:00:02Z,1585238403,2020,16,0,86.6667,86.625,85.812,18.398,990.1,-20.1,-999.0,yes,yes,no,300234010084660,unknown,unknown,unknown,North
2020-03-26T16:59:57Z,1585241997,2020,17,0,86.7083,86.625,85.812,18.398,990.5,-20.0,-999.0,yes,yes,no,300234010084660,unknown,unknown,unknown,North
2020-03-26T18:00:00Z,1585245600,2020,18,0,86.75,86.75,85.7948,18.3982,990.9,-19.8,-999.0,yes,yes,no,300234010084660,unknown,unknown,unknown,North
2020-03-26T19:00:02Z,1585249203,2020,19,0,86.7917,86.75,85.7948,18.3982,991.0,-19.7,-999.0,yes,yes,no,300234010084660,unknown,unknown,unknown,North
2020-03-26T19:59:57Z,1585252797,2020,20,0,86.8333,86.75,85.7948,18.3982,991.4,-19.7,-999.0,yes,yes,no,300234010084660,unknown,unknown,unknown,North
2020-03-26T21:00:00Z,1585256400,2020,21,0,86.875,86.875,85.7768,18.3976,992.0,-19.7,-999.0,yes,yes,no,300234010084660,unknown,unknown,unknown,North
2020-03-26T22:00:02Z,1585260003,2020,22,0,86.9167,86.875,85.7768,18.3976,992.4,-19.8,-999.0,yes,yes,no,300234010084660,unknown,unknown,unknown,North
2020-03-26T22:59:57Z,1585263597,2020,23,0,86.9583,86.875,85.7768,18.3976,992.8,-19.9,-999.0,yes,yes,no,300234010084660,unknown,unknown,unknown,North
2020-03-27T00:00:00Z,1585267200,2020,0,0,87.0,87.0,85.7558,18.402,993.2,-20.0,-999.0,yes,yes,no,300234010084660,unknown,unknown,unknown,North
2020-03-27T01:00:02Z,1585270803,2020,1,0,87.0417,87.0,85.7558,18.402,993.4,-20.2,-999.0,yes,yes,no,300234010084660,unknown,unknown,unknown,North
2020-03-27T01:59:57Z,1585274397,2020,2,0,87.0833,87.0,85.7558,18.402,993.9,-20.5,-999.0,yes,yes,no,300234010084660,unknown,unknown,unknown,North
2020-03-27T03:00:00Z,1585278000,2020,3,0,87.125,87.125,85.7338,18.4122,994.3,-20.7,-999.0,yes,yes,no,300234010084660,unknown,unknown,unknown,North
2020-03-27T04:00:02Z,1585281603,2020,4,0,87.1667,87.125,85.7338,18.4122,994.3,-21.0,-999.0,yes,yes,no,300234010084660,unknown,unknown,unknown,North
2020-03-27T04:59:57Z,1585285197,2020,5,0,87.2083,87.125,85.7338,18.4122,994.6,-21.4,-999.0,yes,yes,no,300234010084660,unknown,unknown,unknown,North
2020-03-27T06:00:00Z,1585288800,2020,6,0,87.25,87.25,85.7134,18.4366,994.9,-21.7,-999.0,yes,yes,no,300234010084660,unknown,unknown,unknown,North
2020-03-27T07:00:02Z,1585292403,2020,7,0,87.2917,87.25,85.7134,18.4366,995.0,-22.0,-999.0,yes,yes,no,300234010084660,unknown,unknown,unknown,North
2020-03-27T07:59:57Z,1585295997,2020,8,0,87.3333,87.25,85.7134,18.4366,995.4,-22.3,-999.0,yes,yes,no,300234010084660,unknown,unknown,unknown,North
2020-03-27T09:00:00Z,1585299600,2020,9,0,87.375,87.375,85.6916,18.4836,995.7,-22.3,-999.0,yes,yes,no,300234010084660,unknown,unknown,unknown,North
2020-03-27T10:00:02Z,1585303203,2020,10,0,87.4167,87.375,85.6916,18.4836,995.8,-22.2,-999.0,yes,yes,no,300234010084660,unknown,unknown,unknown,North
2020-03-27T10:59:57Z,1585306797,2020,11,0,87.4583,87.375,85.6916,18.4836,996.0,-21.9,-999.0,yes,yes,no,300234010084660,unknown,unknown,unknown,North
2020-03-27T12:00:00Z,1585310400,2020,12,0,87.5,87.5,85.6642,18.5066,995.6,-21.7,-999.0,yes,yes,no,300234010084660,unknown,unknown,unknown,North
2020-03-27T13:00:02Z,1585314003,2020,13,0,87.5417,87.5,85.6642,18.5066,995.7,-21.6,-999.0,yes,yes,no,300234010084660,unknown,unknown,unknown,North
2020-03-27T13:59:57Z,1585317597,2020,14,0,87.5833,87.5,85.6642,18.5066,995.7,-21.4,-999.0,yes,yes,no,300234010084660,unknown,unknown,unknown,North
2020-03-27T15:00:00Z,1585321200,2020,15,0,87.625,87.625,85.6352,18.5048,995.6,-21.3,-999.0,yes,yes,no,300234010084660,unknown,unknown,unknown,North
2020-03-27T16:00:02Z,1585324803,2020,16,0,87.6667,87.625,85.6352,18.5048,995.4,-21.1,-999.0,yes,yes,no,300234010084660,unknown,unknown,unknown,North
2020-03-27T16:59:57Z,1585328397,2020,17,0,87.7083,87.625,85.6352,18.5048,995.2,-21.1,-999.0,yes,yes,no,300234010084660,unknown,unknown,unknown,North
2020-03-27T18:00:00Z,1585332000,2020,18,0,87.75,87.75,85.6064,18.5142,995.3,-20.9,-999.0,yes,yes,no,300234010084660,unknown,unknown,unknown,North
2020-03-27T19:00:02Z,1585335603,2020,19,0,87.7917,87.75,85.6064,18.5142,995.1,-20.8,-999.0,yes,yes,no,300234010084660,unknown,unknown,unknown,North
2020-03-27T19:59:57Z,1585339197,2020,20,0,87.8333,87.75,85.6064,18.5142,995.1,-20.6,-999.0,yes,yes,no,300234010084660,unknown,unknown,unknown,North
2020-03-27T21:00:00Z,1585342800,2020,21,0,87.875,87.875,85.5768,18.508,995.3,-20.5,-999.0,yes,yes,no,300234010084660,unknown,unknown,unknown,North
2020-03-27T22:00:02Z,1585346403,2020,22,0,87.9167,87.875,85.5768,18.508,995.1,-20.3,-999.0,yes,yes,no,300234010084660,unknown,unknown,unknown,North
2020-03-27T22:59:57Z,1585349997,2020,23,0,87.9583,87.875,85.5768,18.508,995.2,-20.3,-999.0,yes,yes,no,300234010084660,unknown,unknown,unknown,North
2020-03-28T00:00:00Z,1585353600,2020,0,0,88.0,88.0,85.5466,18.47,995.2,-20.2,-999.0,yes,yes,no,300234010084660,unknown,unknown,unknown,North
2020-03-28T01:00:02Z,1585357203,2020,1,0,88.0417,88.0,85.5466,18.47,995.4,-20.0,-999.0,yes,yes,no,300234010084660,unknown,unknown,unknown,North
2020-03-28T01:59:57Z,1585360797,2020,2,0,88.0833,88.0,85.5466,18.47,995.3,-19.8,-999.0,yes,yes,no,300234010084660,unknown,unknown,unknown,North
2020-03-28T03:00:00Z,1585364400,2020,3,0,88.125,88.125,85.5202,18.428,995.4,-19.5,-999.0,yes,yes,no,300234010084660,unknown,unknown,unknown,North
2020-03-28T04:00:02Z,1585368003,2020,4,0,88.1667,88.125,85.5202,18.428,995.5,-19.2,-999.0,yes,yes,no,300234010084660,unknown,unknown,unknown,North
2020-03-28T04:59:57Z,1585371597,2020,5,0,88.2083,88.125,85.5202,18.428,996.0,-18.9,-999.0,yes,yes,no,300234010084660,unknown,unknown,unknown,North
2020-03-28T06:00:00Z,1585375200,2020,6,0,88.25,88.25,85.4978,18.3828,996.2,-18.4,-999.0,yes,yes,no,300234010084660,unknown,unknown,unknown,North
2020-03-28T07:00:02Z,1585378803,2020,7,0,88.2917,88.25,85.4978,18.3828,996.5,-18.0,-999.0,yes,yes,no,300234010084660,unknown,unknown,unknown,North
2020-03-28T07:59:57Z,1585382397,2020,8,0,88.3333,88.25,85.4978,18.3828,997.1,-17.7,-999.0,yes,yes,no,300234010084660,unknown,unknown,unknown,North
2020-03-28T09:00:00Z,1585386000,2020,9,0,88.375,88.375,85.4742,18.3184,997.5,-17.5,-999.0,yes,yes,no,300234010084660,unknown,unknown,unknown,North
2020-03-28T10:00:02Z,1585389603,2020,10,0,88.4167,88.375,85.4742,18.3184,998.0,-17.3,-999.0,yes,yes,no,300234010084660,unknown,unknown,unknown,North
2020-03-28T10:59:57Z,1585393197,2020,11,0,88.4583,88.375,85.4742,18.3184,998.4,-17.2,-999.0,yes,yes,no,300234010084660,unknown,unknown,unknown,North
2020-03-28T12:00:00Z,1585396800,2020,12,0,88.5,88.5,85.4478,18.2332,998.9,-17.2,-999.0,yes,yes,no,300234010084660,unknown,unknown,unknown,North
2020-03-28T13:00:02Z,1585400403,2020,13,0,88.5417,88.5,85.4478,18.2332,999.3,-17.2,-999.0,yes,yes,no,300234010084660,unknown,unknown,unknown,North
2020-03-28T13:59:57Z,1585403997,2020,14,0,88.5833,88.5,85.4478,18.2332,999.9,-17.4,-999.0,yes,yes,no,300234010084660,unknown,unknown,unknown,North
2020-03-28T15:00:00Z,1585407600,2020,15,0,88.625,88.625,85.423,18.1724,1000.1,-17.5,-999.0,yes,yes,no,300234010084660,unknown,unknown,unknown,North
2020-03-28T16:00:02Z,1585411203,2020,16,0,88.6667,88.625,85.423,18.1724,1000.3,-17.8,-999.0,yes,yes,no,300234010084660,unknown,unknown,unknown,North
2020-03-28T16:59:57Z,1585414797,2020,17,0,88.7083,88.625,85.423,18.1724,1001.0,-18.1,-999.0,yes,yes,no,300234010084660,unknown,unknown,unknown,North
2020-03-28T18:00:00Z,1585418400,2020,18,0,88.75,88.75,85.4008,18.1572,1001.2,-18.4,-999.0,yes,yes,no,300234010084660,unknown,unknown,unknown,North
2020-03-28T19:00:02Z,1585422003,2020,19,0,88.7917,88.75,85.4008,18.1572,1001.5,-18.6,-999.0,yes,yes,no,300234010084660,unknown,unknown,unknown,North
2020-03-28T19:59:57Z,1585425597,2020,20,0,88.8333,88.75,85.4008,18.1572,1001.8,-18.8,-999.0,yes,yes,no,300234010084660,unknown,unknown,unknown,North
2020-03-28T21:00:00Z,1585429200,2020,21,0,88.875,88.875,85.3792,18.1414,1002.2,-19.1,-999.0,yes,yes,no,300234010084660,unknown,unknown,unknown,North
2020-03-28T22:00:02Z,1585432803,2020,22,0,88.9167,88.875,85.3792,18.1414,1002.4,-19.2,-999.0,yes,yes,no,300234010084660,unknown,unknown,unknown,North
2020-03-28T22:59:57Z,1585436397,2020,23,0,88.9583,88.875,85.3792,18.1414,1002.5,-19.5,-999.0,yes,yes,no,300234010084660,unknown,unknown,unknown,North
2020-03-29T00:00:00Z,1585440000,2020,0,0,89.0,89.0,85.358,18.1208,1003.1,-19.8,-999.0,yes,yes,no,300234010084660,unknown,unknown,unknown,North
2020-03-29T01:00:02Z,1585443603,2020,1,0,89.0417,89.0,85.358,18.1208,1003.6,-20.0,-999.0,yes,yes,no,300234010084660,unknown,unknown,unknown,North
2020-03-29T01:59:57Z,1585447197,2020,2,0,89.0833,89.0,85.358,18.1208,1003.7,-20.2,-999.0,yes,yes,no,300234010084660,unknown,unknown,unknown,North
2020-03-29T03:00:00Z,1585450800,2020,3,0,89.125,89.125,85.3392,18.103,1004.4,-20.4,-999.0,yes,yes,no,300234010084660,unknown,unknown,unknown,North